Tracking 27422 objects as of 30-May-2023
HD Live streaming from Space Station
objects crossing your sky now

STARLINK-4502

Track STARLINK-4502 now!
10-day predictions
STARLINK-4502 is classified as:


NORAD ID: 53557
Int'l Code: 2022-101AG
Perigee: 546.3 km
Apogee: 547.4 km
Inclination: 53.2 °
Period: 95.4 minutes
Semi major axis: 6917 km
RCS: Unknown
Launch date: August 19, 2022
Source: United States (US)
Launch site: AIR FORCE EASTERN TEST RANGE (AFETR)
Your satellite tracking list
Your tracking list is empty




NASA's NSSDC Master Catalog

Two Line Element Set (TLE):
1 53557U 22101AG  23149.79856969  .00001388  00000-0  10528-3 0  9998
2 53557  53.2171 300.1421 0000816 102.0648 258.0436 15.08841863 43743
Source of the keplerian elements: AFSPC